Regional Weather Roundup
Issued by NWS Austin/San Antonio, TX

Home | Current Version | Previous Version | Text Only | Print | Product List | Glossary On
Versions: 1 2 3 4 5 6 7 8 9 10 11 12 13 14 15 16 17 18 19 20 21 22 23 24 25 26 27 28 29 30 31 32 33 34 35 36 37 38 39 40 41 42 43 44 45 46 47 48 49 50
000
ASUS44 KEWX 200901
RWREWX
SOUTH TEXAS REGIONAL WEATHER ROUNDUP
NATIONAL WEATHER SERVICE AUSTIN/SAN ANTONIO TX
300 AM CST MON NOV 20 2017

NOTE: "FAIR" INDICATED FEW OR NO CLOUDS BELOW 12,000 FEET WITH NO
SIGNIFICANT WEATHER AND/OR OBSTRUCTIONS TO VISIBILITY.

* - THESE STATIONS ARE NOT NWS OR FAA STATIONS...AND ARE NOT SUBJECT
    TO NWS AND FAA QUALITY CONTROL.

TXZ171-172-183>190-201000-
TEXAS HILL COUNTRY AND EDWARDS PLATEAU

CITY           SKY/WX    TMP DP  RH WIND       PRES   REMARKS
JUNCTION       PTCLDY    34  28  79 NW3       30.18F
*LLANO         PTCLDY    34  32  93 CALM      30.24S
BURNET         PTCLDY    41  30  65 CALM      30.21F
*HORSESHOE BAY PTCLDY    37  34  89 CALM      30.21S
*KERRVILLE     PTCLDY    37  34  90 CALM      30.19S
*FREDERICKSBRG PTCLDY    34  31  87 CALM      30.19F
*ROCKSPRINGS   NOT AVBL
*BOERNE STAGE  CLOUDY    36  32  87 CALM      30.20S
*CASTROVILLE   CLOUDY    43  34  70 NW5       30.21F WCI  40
HONDO          PTCLDY    43  31  62 N7        30.19F WCI  39
*UVALDE        PTCLDY    43  32  65 E6        30.20S WCI  39
DEL RIO        CLOUDY    45  32  60 E5        30.16F WCI  43
LAUGHLIN AFB   PTCLDY    42  33  69 CALM      30.17F
CARRIZO SPRGS  CLEAR     41  37  87 CALM      30.18S
*EAGLE PASS    SUNNY     41  36  81 CALM      30.18S
$$

TXZ173-191>194-202-209-217>225-228-201000-
CENTRAL AND SOUTH CENTRAL TEXAS

CITY           SKY/WX    TMP DP  RH WIND       PRES   REMARKS
GEORGETOWN     PTCLDY    36  31  82 CALM      30.22F
AUSTIN/BERGSTM PTCLDY    39  38  96 CALM      30.20F
AUSTIN/MABRY   PTCLDY    40  35  83 CALM      30.21F
*AUSTIN/EXEC   PTCLDY    45  32  61 CALM      30.21F
*LAGO VISTA    PTCLDY    48  30  49 SE3       30.20S
SAN MARCOS     CLOUDY    39  34  82 N6        30.21F WCI  35
NEW BRAUNFELS  CLOUDY    40  35  83 NE3       30.18F
RANDOLPH AFB   CLOUDY    43  36  77 NW5       30.19F WCI  40
PT SAN ANTONIO CLOUDY    44  37  77 CALM      30.17F
SAN ANTONIO    CLOUDY    46  36  68 NW3       30.20F
STINSON FIELD  PTCLDY    47  37  68 CALM      30.17F
*LA GRANGE     PTCLDY    41  40  93 CALM      30.20S
*GIDDINGS      PTCLDY    40  37  87 CALM      30.21F
*GONZALES      PTCLDY    42  39  91 CALM      30.21S
$$

TXZ163>164-176>182-195>201-210>213-226-227-235-201000-
SOUTHEAST TEXAS

CITY           SKY/WX    TMP DP  RH WIND       PRES   REMARKS
COLLEGE STN    PTCLDY    42  36  79 CALM      30.22S
*BRYAN         PTCLDY    38  37  97 CALM      30.24S
*CALDWELL      PTCLDY    39  36  89 N3        30.22F
*CROCKETT        N/A    N/A N/A N/A MISG        N/A
*BRENHAM       PTCLDY    41  39  91 CALM      30.23S
HUNTSVILLE     PTCLDY    43  38  82 CALM      30.22F
CONROE         CLOUDY    39  39 100 CALM      30.22F
HOUSTON BUSH   CLOUDY    44  39  82 CALM      30.21F
HOUSTON HOBBY  PTCLDY    50  37  61 NE6       30.20F WCI  48
*HOUSTON SW AP PTCLDY    42  40  93 CALM      30.23R
PEARLAND       PTCLDY    47  41  80 CALM      30.22S
HOUSTON HOOKS  PTCLDY    43  42  97 CALM      30.22F
ELLINGTON FLD  NOT AVBL
SUGAR LAND     PTCLDY    44  41  89 CALM      30.20F
*HOUSTON EXEC  PTCLDY    41  39  93 N3        30.22F
*CLEVELAND MUN PTCLDY    40  38  95 CALM      30.24S
*WHARTON       MOCLDY    44  40  86 CALM      30.21F
*COLUMBUS      FAIR      40  38  92 CALM      30.22F
*EAGLE LAKE    MOSUNNY   44  38  81 CALM      30.21S
$$

TXZ214>216-236>238-201000-
THE UPPER TEXAS COAST

CITY           SKY/WX    TMP DP  RH WIND       PRES   REMARKS
*ORANGE        MOCLDY    40  39  97 CALM      30.24R
PORT ARTHUR    MOCLDY    44  37  76 CALM      30.22R
GALVESTON      PTCLDY    58  43  57 NE8       30.21S
ANGLETON       PTCLDY    44  40  85 N6        30.21R WCI  41
*BAY CITY      MOCLDY    48  43  82 CALM      30.20S
PALACIOS       MOCLDY    48  41  76 NE5       30.20F WCI  46
$$

TXZ229>234-239>247-201000-
TEXAS COASTAL BEND AND RIO GRANDE PLAINS

CITY           SKY/WX    TMP DP  RH WIND       PRES   REMARKS
VICTORIA       MOCLDY    46  38  73 NE5       30.21F WCI  44
*BEEVILLE      MOCLDY    49  38  65 NE5       30.19S WCI  48
ROCKPORT       PTCLDY    55  44  66 NE7       30.18F
*PORT ARANSAS  NOT AVBL
*PORT LAVACA   MOCLDY    52  41  65 CALM      30.21S
*INGLESIDE     NOT AVBL
CORPUS CHRISTI CLOUDY    49  35  58 NW6       30.18F WCI  46
CORPUS NAS     NOT AVBL
*ROBSTOWN      PTCLDY    50  40  70 N3        30.18F
ALICE          PTCLDY    45  37  73 NW3       30.18F
KINGSVILLE NAS CLOUDY    47  41  80 NW3       30.18F
COTULLA        CLEAR     47  34  60 VRB3      30.19F
*FAITH RANCH   CLEAR     48  36  61 SE7       30.17F WCI  45
LAREDO         CLEAR     50  38  63 E3        30.19F
$$

TXZ248>255-201000-
DEEP SOUTH TEXAS

CITY           SKY/WX    TMP DP  RH WIND       PRES   REMARKS
BROWNSVILLE    CLOUDY    60  47  61 N7        30.15F
PORT ISABEL    CLOUDY    58  47  66 NW8       30.15F
*SOUTH PADRE   NOT AVBL
HARLINGEN      CLOUDY    56  47  71 N6        30.15F
*HEBBRONVILLE  CLEAR     44  38  77 CALM      30.19F
MCALLEN        CLEAR     57  46  66 NE5       30.17F
*WESLACO       MOCLDY    53  45  74 CALM      30.16F
FALFURRIAS     NOT AVBL
EDINBURG       CLEAR     51  45  79 CALM      30.17F
*ZAPATA        CLEAR     48  36  64 NE5       30.17F WCI  46
$$

TXZ213>215-236>238-242>244-246-247-251-254-255-201000-
CMAN STATIONS

STATION/POSITION TIME  TEMP    WIND        PRES    WAVE
                       AIR SEA DIR/SP/G            HT/PER
                 (UTC) (F)     (DEG/KT/KT) (MB)    (FT/S)
SABINE PASS      0830   51 69   40/  5/  6 1024.7
SEA RIM ST PARK  0800   51      60/  4/  5 1023.3
NORTH JETTY/GLS  0830      65   40/ 12/ 14 1021.9
EAGLE POINT      0824   58 64   80/ 12/ 14 1022.9
MORGANS POINT    0830   55 70   50/  7/  8 1022.9
PORT O`CONNOR    0824   61 64   60/ 11/ 13 1021.9
PORT ARANSAS     0800   61 71  350/ 11/ 13 1022.5
MALAQUITE BEACH  0824   61 71  330/  6/  9 1021.4
BAFFIN BAY       0824   58 66  340/  9/ 11 1022.0
PORT ISABEL      0824   61 73  310/  8/ 10 1020.4
$$



USA.gov is the U.S. government's official web portal to all federal, state and local government web resources and services.